Bile Vchynice, Czech Republic

4:21 PM CEST on April 29, 2017 (GMT +0200)
Bile Vchynice

Weather History for 11624 - January, 2014

Change the Weather History Date:

Monday, January 13, 2014

  Actual Average Record
Temperature  
Mean Temperature 32 °F -  
Max Temperature 41 °F - - ()
Min Temperature 23 °F - - ()
Degree Days  
Heating Degree Days 33    
Moisture  
Dew Point 26 °F    
Average Humidity 78    
Maximum Humidity 93    
Minimum Humidity 40    
Precipitation  
Precipitation 0.00 in - - ()
Sea Level Pressure  
Sea Level Pressure 30.03 in    
Wind  
Wind Speed 3 mph ()    
Max Wind Speed 9 mph    
Max Gust Speed -    
Visibility 10.5 miles    
Events      
T = Trace of Precipitation, MM = Missing Value Source: Averaged Metar Reports

Daily Weather History Graph

Daily Weather History Graph

Search for Another Location

Airport or City:

Trip Planner

Search our weather history database for the weather conditions in past years. The results will help you decide how hot, cold, wet, or windy it might be!

Date:

Astronomy

Jan. 13, 2014 Rise Set
Actual Time 7:52 AM CET 4:22 PM CET
Civil Twilight 7:15 AM CET 4:59 PM CET
Nautical Twilight 6:34 AM CET 5:39 PM CET
Astronomical Twilight 5:56 AM CET 6:18 PM CET
Moon 2:24 PM CET (1/13) 5:25 AM CET (1/13)
Length of Visible Light 9h 44m
Length of Day
8h 29m
Waxing Gibbous, 93% of the Moon is Illuminated
Jan 13
Waxing Gibbous
Jan 16
Full
Jan 24
Last Quarter
Jan 30
New
Feb 6
First Quarter

Hourly Weather History & Observations

Time (CET) Temp. Windchill Dew Point Humidity Pressure Visibility Wind Dir Wind Speed Gust Speed Precip Events Conditions
12:00 AM 30 °F - 27 °F 82% 30.18 in 12 mi South 2.2 mph - -   Partly Cloudy
12:00 AM 30.2 °F - 26.6 °F 86% 30.12 in - SSW 1.2 mph - N/A   Clear
1:00 AM 30 °F - 27 °F 85% 30.17 in 12 mi SSE 2.2 mph - -   Clear
1:00 AM 30.2 °F - 26.6 °F 86% 30.09 in - South 2.3 mph - N/A   Clear
2:00 AM 29 °F - 26 °F 83% 30.15 in 12 mi SE 4.5 mph - -   Clear
2:00 AM 28.4 °F 24.6 °F 24.8 °F 86% 30.09 in - SE 3.5 mph - N/A   Clear
3:00 AM 27 °F - 25 °F 88% 30.14 in 12 mi SE 2.2 mph - -   Clear
3:00 AM 26.6 °F 22.6 °F 24.8 °F 93% 30.06 in - SE 3.5 mph - N/A   Clear
4:00 AM 26 °F - 24 °F 90% 30.14 in 12 mi SE 4.5 mph - -   Clear
4:00 AM 26.6 °F 22.6 °F 24.8 °F 93% 30.06 in - SE 3.5 mph - N/A   Clear
5:00 AM 26 °F - 25 °F 92% 30.12 in 12 mi ESE 4.5 mph - -   Clear
5:00 AM 26.6 °F 21.2 °F 24.8 °F 93% 30.06 in - ESE 4.6 mph - N/A   Clear
6:00 AM 24 °F - 23 °F 93% 30.12 in 12 mi SSE 6.7 mph - -   Clear
6:00 AM 24.8 °F 17.9 °F 23.0 °F 93% 30.04 in - SSE 5.8 mph - N/A   Clear
7:00 AM 25 °F - 23 °F 89% 30.12 in 12 mi SSE 4.5 mph - -   Clear
7:00 AM 24.8 °F 19.1 °F 23.0 °F 93% 30.04 in - SSE 4.6 mph - N/A   Clear
8:00 AM 25 °F - 23 °F 89% 30.12 in 12 mi ESE 4.5 mph - -   Clear
8:00 AM 24.8 °F 19.1 °F 23.0 °F 93% 30.06 in - ESE 4.6 mph - N/A   Clear
9:00 AM 27 °F - 24 °F 86% 30.09 in 12 mi SE 8.9 mph - -   Clear
9:00 AM 26.6 °F 17.5 °F 24.8 °F 93% 30.04 in - SE 9.2 mph - N/A   Clear
10:00 AM 31 °F - 27 °F 77% 30.08 in 12 mi SE 6.7 mph - -   Clear
10:00 AM 30.2 °F 24.3 °F 26.6 °F 86% 30.04 in - SE 5.8 mph - N/A   Clear
11:00 AM 34 °F - 26 °F 64% 30.06 in 12 mi SE 4.5 mph - -   Clear
11:00 AM 33.8 °F 29.6 °F 26.6 °F 75% 30.01 in - SE 4.6 mph - N/A   Clear
12:00 PM 38 °F - 24 °F 45% 30.02 in 12 mi SE 8.9 mph - -   Clear
12:00 PM 37.4 °F 32.1 °F 24.8 °F 60% 29.98 in - SE 6.9 mph - N/A   Clear
1:00 PM 40 °F - 25 °F 43% 30.01 in 12 mi SE 6.7 mph - -   Clear
1:00 PM 39.2 °F 34.2 °F 24.8 °F 56% 29.98 in - SE 6.9 mph - N/A   Clear
2:00 PM 41 °F - 25 °F 40% 30.00 in 12 mi NW 2.2 mph - -   Clear
2:00 PM 41.0 °F - 24.8 °F 53% 29.95 in - Variable 1.2 mph - N/A   Clear
3:00 PM 41 °F - 26 °F 42% 29.99 in 12 mi Calm Calm - -   Clear
3:00 PM 41.0 °F - 24.8 °F 53% 29.95 in - Calm Calm - N/A   Clear
4:00 PM 39 °F - 25 °F 46% 29.98 in 12 mi North 2.2 mph - -   Scattered Clouds
4:00 PM 39.2 °F - 24.8 °F 56% 29.95 in - Variable 2.3 mph - N/A   Clear
5:00 PM 34 °F - 26 °F 62% 29.99 in 12 mi Calm Calm - -   Scattered Clouds
5:00 PM 33.8 °F - 24.8 °F 70% 29.95 in - Calm Calm - N/A   Clear
6:00 PM 31 °F - 26 °F 74% 29.99 in 12 mi West 2.2 mph - -   Scattered Clouds
6:00 PM 30.2 °F 26.7 °F 26.6 °F 86% 29.95 in - West 3.5 mph - N/A   Clear
7:00 PM 29 °F - 26 °F 84% 29.99 in 12 mi South 2.2 mph - -   Scattered Clouds
7:00 PM 30.2 °F 26.7 °F 26.6 °F 86% 29.95 in - South 3.5 mph - N/A   Clear
8:00 PM 30 °F - 27 °F 82% 29.99 in 6 mi Calm Calm - -   Scattered Clouds
8:00 PM 30.2 °F - 26.6 °F 86% 29.95 in - Calm Calm - N/A   Clear
9:00 PM 30 °F - 26 °F 81% 29.99 in 6 mi ESE 2.2 mph - -   Partly Cloudy
9:00 PM 30.2 °F - 26.6 °F 86% 29.92 in 6.2 mi Variable 1.2 mph - N/A   Mostly Cloudy
10:00 PM 33 °F - 30 °F 82% 29.98 in 6 mi SE 4.5 mph - -   Overcast
10:00 PM 32.0 °F 28.7 °F 28.4 °F 87% 29.92 in 6.2 mi SE 3.5 mph - N/A   Overcast
11:00 PM 33 °F - 29 °F 82% 29.96 in 6 mi SE 6.7 mph - -   Partly Cloudy
11:00 PM 32.0 °F 25.6 °F 30.2 °F 93% 29.92 in 6.2 mi SE 6.9 mph - N/A   Mostly Cloudy